EW6167 Weather Reports


time (UTC)temp
C
wind
direction
speed
KPH
gust
KPH
rain 1hr
cm
rain 24hr
cm
rain mn
cm
humidity
%
barometer
mb
20260831231027 25 190 16.1 0.0 0.00 0.00 0.00 11 1009.1
20260831230539 25 126 16.1 0.0 0.00 0.00 0.00 12 1009.0
20260831230055 25 180 14.5 0.0 0.00 0.00 0.00 12 1009.1
20260831225501 25 154 17.7 0.0 0.00 0.00 0.00 11 1009.4
20260831225019 25 124 17.7 0.0 0.00 0.00 0.00 11 1009.3
20260831224541 25 182 19.3 0.0 0.00 0.00 0.00 11 1009.3
20260831224001 25 161 17.7 0.0 0.00 0.00 0.00 12 1009.3
20260831223523 25 146 17.7 0.0 0.00 0.00 0.00 12 1009.4
20260831223033 25 110 19.3 0.0 0.00 0.00 0.00 13 1009.4
20260831222548 25 182 17.7 0.0 0.00 0.00 0.00 12 1009.4
20260831222053 25 132 19.3 0.0 0.00 0.00 0.00 12 1009.6
20260831221512 25 148 20.9 0.0 0.00 0.00 0.00 13 1009.8
20260831221030 25 117 19.3 0.0 0.00 0.00 0.00 13 1009.8
20260831220552 25 132 19.3 0.0 0.00 0.00 0.00 13 1009.8
20260831220059 24 167 19.3 0.0 0.00 0.00 0.00 14 1009.8
20260831215513 25 159 20.9 0.0 0.00 0.00 0.00 14 1010.0
20260831215026 24 159 22.5 0.0 0.00 0.00 0.00 14 1009.8
20260831214535 24 171 24.1 0.0 0.00 0.00 0.00 14 1009.9
20260831214048 24 178 22.5 0.0 0.00 0.00 0.00 14 1009.9
20260831213504 24 157 22.5 0.0 0.00 0.00 0.00 14 1010.1
20260831213018 24 184 22.5 0.0 0.00 0.00 0.00 15 1010.1
20260831212540 24 140 22.5 0.0 0.00 0.00 0.00 15 1010.1
20260831212057 24 154 22.5 0.0 0.00 0.00 0.00 15 1010.2
20260831211502 24 180 22.5 0.0 0.00 0.00 0.00 16 1010.3
20260831211008 24 123 24.1 0.0 0.00 0.00 0.00 16 1010.3
20260831210532 23 198 25.7 0.0 0.00 0.00 0.00 16 1010.4
20260831210052 23 111 22.5 0.0 0.00 0.00 0.00 16 1010.4
20260831205502 23 150 24.1 0.0 0.00 0.00 0.00 17 1010.6
20260831205027 23 133 25.7 0.0 0.00 0.00 0.00 17 1010.5
20260831204543 23 135 24.1 0.0 0.00 0.00 0.00 17 1010.6
20260831204007 23 130 25.7 0.0 0.00 0.00 0.00 16 1010.6
20260831203518 23 114 25.7 0.0 0.00 0.00 0.00 17 1010.5
20260831203033 23 158 24.1 0.0 0.00 0.00 0.00 17 1010.6
20260831202537 23 184 24.1 0.0 0.00 0.00 0.00 19 1010.8
20260831202050 23 180 24.1 0.0 0.00 0.00 0.00 18 1010.9
20260831201556 23 136 22.5 0.0 0.00 0.00 0.00 18 1010.9
20260831201014 23 137 22.5 0.0 0.00 0.00 0.00 18 1010.8
20260831200535 22 107 24.1 0.0 0.00 0.00 0.00 18 1011.1
20260831200044 22 114 24.1 0.0 0.00 0.00 0.00 18 1011.1
20260831195507 22 109 25.7 0.0 0.00 0.00 0.00 19 1011.2
20260831195026 22 98 25.7 0.0 0.00 0.00 0.00 19 1011.2
20260831194537 22 136 24.1 0.0 0.00 0.00 0.00 19 1011.4
20260831194047 22 122 22.5 0.0 0.00 0.00 0.00 18 1011.3
20260831193601 22 126 22.5 0.0 0.00 0.00 0.00 19 1011.3
20260831193012 22 168 22.5 0.0 0.00 0.00 0.00 19 1011.5
20260831192519 22 142 22.5 0.0 0.00 0.00 0.00 19 1011.5
20260831192028 22 178 20.9 0.0 0.00 0.00 0.00 19 1011.7
20260831191536 22 178 19.3 0.0 0.00 0.00 0.00 20 1011.9
20260831191044 22 127 20.9 0.0 0.00 0.00 0.00 21 1011.7
20260831190552 21 122 22.5 0.0 0.00 0.00 0.00 22 1011.8
20260831190008 21 156 20.9 0.0 0.00 0.00 0.00 21 1011.8
20260831185526 21 153 20.9 0.0 0.00 0.00 0.00 21 1012.0
20260831185038 21 121 20.9 0.0 0.00 0.00 0.00 21 1011.9
20260831184552 21 150 20.9 0.0 0.00 0.00 0.00 21 1011.8
20260831184001 21 115 22.5 0.0 0.00 0.00 0.00 20 1011.9
20260831183514 21 171 22.5 0.0 0.00 0.00 0.00 21 1012.2
20260831183034 21 131 24.1 0.0 0.00 0.00 0.00 21 1012.2
20260831182540 20 150 25.7 0.0 0.00 0.00 0.00 21 1012.3
20260831182047 20 170 24.1 0.0 0.00 0.00 0.00 20 1012.3
20260831181512 20 109 20.9 0.0 0.00 0.00 0.00 21 1012.4
20260831181021 20 106 20.9 0.0 0.00 0.00 0.00 21 1012.5
20260831180535 20 127 20.9 0.0 0.00 0.00 0.00 20 1012.5
20260831180045 20 172 20.9 0.0 0.00 0.00 0.00 21 1012.7
20260831175555 20 130 22.5 0.0 0.00 0.00 0.00 20 1012.7
20260831175001 20 110 22.5 0.0 0.00 0.00 0.00 20 1012.6
20260831174515 20 138 22.5 0.0 0.00 0.00 0.00 21 1012.6
20260831174039 20 184 22.5 0.0 0.00 0.00 0.00 20 1012.9
20260831173552 19 172 22.5 0.0 0.00 0.00 0.00 21 1012.8
20260831173002 18 137 24.1 0.0 0.00 0.00 0.00 22 1012.9
20260831172508 18 165 22.5 0.0 0.00 0.00 0.00 21 1013.0
20260831172017 18 160 22.5 0.0 0.00 0.00 0.00 23 1013.2
20260831171538 18 162 24.1 0.0 0.00 0.00 0.00 25 1013.1
20260831171044 18 175 24.1 0.0 0.00 0.00 0.00 24 1013.1
20260831170550 18 161 24.1 0.0 0.00 0.00 0.00 24 1013.2
20260831165516 17 129 25.7 0.0 0.00 0.00 0.00 24 1013.2
20260831165035 17 128 24.1 0.0 0.00 0.00 0.00 24 1013.2
20260831164540 17 183 22.5 0.0 0.00 0.00 0.00 22 1013.3
20260831164049 17 168 22.5 0.0 0.00 0.00 0.00 25 1013.3
20260831163515 17 142 22.5 0.0 0.00 0.00 0.00 25 1013.3
20260831163034 17 148 22.5 0.0 0.00 0.00 0.00 25 1013.2
20260831162535 16 148 20.9 0.0 0.00 0.00 0.00 24 1013.4
20260831162046 16 159 22.5 0.0 0.00 0.00 0.00 25 1013.3
20260831161604 16 134 22.5 0.0 0.00 0.00 0.00 25 1013.5
20260831161015 16 148 22.5 0.0 0.00 0.00 0.00 25 1013.5
20260831160526 16 137 22.5 0.0 0.00 0.00 0.00 26 1013.6
20260831160053 15 168 22.5 0.0 0.00 0.00 0.00 27 1013.5
20260831155550 15 136 22.5 0.0 0.00 0.00 0.00 28 1013.6
20260831155057 15 134 22.5 0.0 0.00 0.00 0.00 30 1013.7
20260831154504 15 165 22.5 0.0 0.00 0.00 0.00 31 1013.8
20260831154020 15 129 20.9 0.0 0.00 0.00 0.00 31 1013.8
20260831153535 15 144 19.3 0.0 0.00 0.00 0.00 31 1013.9
20260831153047 14 151 19.3 0.0 0.00 0.00 0.00 31 1013.9
20260831152553 14 180 19.3 0.0 0.00 0.00 0.00 32 1014.0
20260831152105 14 123 17.7 0.0 0.00 0.00 0.00 31 1014.0
20260831151518 13 151 14.5 0.0 0.00 0.00 0.00 32 1014.0
20260831151021 13 155 14.5 0.0 0.00 0.00 0.00 33 1014.0
20260831150539 13 190 16.1 0.0 0.00 0.00 0.00 33 1013.9
20260831150058 13 186 17.7 0.0 0.00 0.00 0.00 33 1013.9
20260831145509 13 136 14.5 0.0 0.00 0.00 0.00 34 1014.1
20260831145028 12 144 14.5 0.0 0.00 0.00 0.00 35 1014.2
20260831144548 12 140 14.5 0.0 0.00 0.00 0.00 36 1014.1
20260831144003 12 149 12.9 0.0 0.00 0.00 0.00 37 1014.0
20260831143523 11 143 11.3 0.0 0.00 0.00 0.00 39 1014.0
20260831143039 10 159 9.7 0.0 0.00 0.00 0.00 41 1013.9
20260831142544 10 185 11.3 0.0 0.00 0.00 0.00 47 1013.7
20260831142049 9 203 11.3 0.0 0.00 0.00 0.00 48 1013.7
20260831141603 8 229 8.0 0.0 0.00 0.00 0.00 49 1013.6
20260831141104 8 203 8.0 0.0 0.00 0.00 0.00 51 1013.7
20260831140505 7 206 9.7 0.0 0.00 0.00 0.00 54 1013.7
20260831140015 7 202 9.7 0.0 0.00 0.00 0.00 55 1013.6
20260831135519 6 213 11.3 0.0 0.00 0.00 0.00 58 1013.4
20260831135021 6 207 12.9 0.0 0.00 0.00 0.00 59 1013.4
20260831134529 5 208 11.3 0.0 0.00 0.00 0.00 60 1013.5
20260831134040 5 212 11.3 0.0 0.00 0.00 0.00 61 1013.5
20260831133545 5 200 14.5 0.0 0.00 0.00 0.00 60 1013.3
20260831133051 5 206 16.1 0.0 0.00 0.00 0.00 60 1013.2
20260831132600 5 206 17.7 0.0 0.00 0.00 0.00 60 1013.1
20260831132002 5 215 17.7 0.0 0.00 0.00 0.00 61 1012.8
20260831131509 5 205 19.3 0.0 0.00 0.00 0.00 61 1012.9
20260831131023 5 211 19.3 0.0 0.00 0.00 0.00 62 1012.8
20260831130539 5 220 19.3 0.0 0.00 0.00 0.00 62 1012.7
20260831130052 4 215 17.7 0.0 0.00 0.00 0.00 62 1012.8
20260831125509 5 206 17.7 0.0 0.00 0.00 0.00 62 1012.7
20260831125016 5 211 16.1 0.0 0.00 0.00 0.00 62 1012.6
20260831124527 5 214 16.1 0.0 0.00 0.00 0.00 62 1012.6
20260831124029 5 217 14.5 0.0 0.00 0.00 0.00 63 1012.6
20260831123545 4 205 14.5 0.0 0.00 0.00 0.00 62 1012.5
20260831123051 5 183 14.5 0.0 0.00 0.00 0.00 62 1012.4
20260831122559 5 200 16.1 0.0 0.00 0.00 0.00 61 1012.4
20260831122020 5 209 17.7 0.0 0.00 0.00 0.00 60 1012.3
20260831121529 5 217 17.7 0.0 0.00 0.00 0.00 59 1012.4
20260831121043 5 203 19.3 0.0 0.00 0.00 0.00 59 1012.6
20260831120558 5 193 17.7 0.0 0.00 0.00 0.00 59 1012.6
20260831120105 5 167 17.7 0.0 0.00 0.00 0.00 59 1012.6
20260831115520 5 215 17.7 0.0 0.00 0.00 0.00 59 1012.6
20260831115029 5 208 17.7 0.0 0.00 0.00 0.00 59 1012.5
20260831114550 5 215 17.7 0.0 0.00 0.00 0.00 58 1012.5
20260831114055 5 197 17.7 0.0 0.00 0.00 0.00 58 1012.5
20260831113501 5 199 16.1 0.0 0.00 0.00 0.00 59 1012.5
20260831113020 5 195 14.5 0.0 0.00 0.00 0.00 60 1012.5
20260831112545 5 215 16.1 0.0 0.00 0.00 0.00 60 1012.5
20260831112054 5 213 14.5 0.0 0.00 0.00 0.00 61 1012.4
20260831111510 5 203 12.9 0.0 0.00 0.00 0.00 61 1012.3
20260831111025 5 200 11.3 0.0 0.00 0.00 0.00 60 1012.4
20260831110531 5 209 11.3 0.0 0.00 0.00 0.00 58 1012.4
20260831110056 5 211 12.9 0.0 0.00 0.00 0.00 59 1012.4
20260831105553 5 225 9.7 0.0 0.00 0.00 0.00 60 1012.2
20260831105105 5 211 9.7 0.0 0.00 0.00 0.00 60 1012.2
20260831104535 5 199 12.9 0.0 0.00 0.00 0.00 59 1012.1
20260831104042 5 194 12.9 0.0 0.00 0.00 0.00 59 1012.1
20260831103556 5 207 12.9 0.0 0.00 0.00 0.00 59 1011.9
20260831103000 6 220 11.3 0.0 0.00 0.00 0.00 56 1011.8
20260831102511 6 209 9.7 0.0 0.00 0.00 0.00 54 1012.0
20260831102033 6 205 11.3 0.0 0.00 0.00 0.00 55 1011.9
20260831101555 6 205 11.3 0.0 0.00 0.00 0.00 55 1011.9
20260831101101 6 202 11.3 0.0 0.00 0.00 0.00 55 1011.8
20260831100516 6 213 11.3 0.0 0.00 0.00 0.00 54 1011.8
20260831100025 6 196 11.3 0.0 0.00 0.00 0.00 55 1011.7
20260831095528 6 213 12.9 0.0 0.00 0.00 0.00 55 1011.8
20260831095046 6 212 11.3 0.0 0.00 0.00 0.00 54 1011.7
20260831094552 6 202 11.3 0.0 0.00 0.00 0.00 54 1011.8
20260831094106 6 196 11.3 0.0 0.00 0.00 0.00 54 1011.7
20260831093515 6 177 9.7 0.0 0.00 0.00 0.00 54 1011.6
20260831093038 6 187 6.4 0.0 0.00 0.00 0.00 54 1011.5
20260831092545 7 181 6.4 0.0 0.00 0.00 0.00 53 1011.5
20260831092059 7 162 8.0 0.0 0.00 0.00 0.00 51 1011.6
20260831091529 7 233 8.0 0.0 0.00 0.00 0.00 50 1011.6
20260831091024 7 203 9.7 0.0 0.00 0.00 0.00 51 1011.6
20260831090530 7 207 11.3 0.0 0.00 0.00 0.00 51 1011.7
20260831090042 7 200 16.1 0.0 0.00 0.00 0.00 52 1011.5
20260831085554 7 201 17.7 0.0 0.00 0.00 0.00 52 1011.5
20260831085004 7 198 17.7 0.0 0.00 0.00 0.00 52 1011.5
20260831084521 7 220 17.7 0.0 0.00 0.00 0.00 52 1011.5
20260831084038 7 187 16.1 0.0 0.00 0.00 0.00 54 1011.4
20260831083546 7 196 11.3 0.0 0.00 0.00 0.00 55 1011.3
20260831083006 7 173 6.4 0.0 0.00 0.00 0.00 53 1011.5
20260831082525 7 184 4.8 0.0 0.00 0.00 0.00 51 1011.4
20260831082040 7 185 6.4 0.0 0.00 0.00 0.00 50 1011.3
20260831081549 7 180 8.0 0.0 0.00 0.00 0.00 51 1011.3
20260831081100 7 213 8.0 0.0 0.00 0.00 0.00 55 1011.2
20260831080523 7 203 12.9 0.0 0.00 0.00 0.00 54 1011.1
20260831080031 7 196 14.5 0.0 0.00 0.00 0.00 54 1011.0
20260831075553 7 200 14.5 0.0 0.00 0.00 0.00 53 1011.0
20260831075106 8 200 14.5 0.0 0.00 0.00 0.00 50 1011.0
20260831074505 7 188 11.3 0.0 0.00 0.00 0.00 51 1011.0
20260831074016 7 195 12.9 0.0 0.00 0.00 0.00 53 1010.9
20260831073522 7 206 14.5 0.0 0.00 0.00 0.00 53 1011.0
20260831073031 7 200 14.5 0.0 0.00 0.00 0.00 54 1011.0
20260831072539 7 200 14.5 0.0 0.00 0.00 0.00 56 1010.9
20260831072053 7 215 12.9 0.0 0.00 0.00 0.00 55 1010.8
20260831071513 7 209 14.5 0.0 0.00 0.00 0.00 54 1010.7
20260831071022 7 191 16.1 0.0 0.00 0.00 0.00 53 1010.8
20260831070532 8 194 14.5 0.0 0.00 0.00 0.00 52 1010.7
20260831070044 8 179 12.9 0.0 0.00 0.00 0.00 51 1010.7
20260831065547 8 217 11.3 0.0 0.00 0.00 0.00 48 1010.8
20260831065057 7 194 11.3 0.0 0.00 0.00 0.00 54 1010.5
20260831064518 7 217 12.9 0.0 0.00 0.00 0.00 58 1010.5
20260831064038 7 218 12.9 0.0 0.00 0.00 0.00 57 1010.6
20260831063547 8 225 12.9 0.0 0.00 0.00 0.00 54 1010.5
20260831063056 8 214 12.9 0.0 0.00 0.00 0.00 52 1010.3
20260831062558 8 203 12.9 0.0 0.00 0.00 0.00 53 1010.2
20260831062009 8 199 12.9 0.0 0.00 0.00 0.00 54 1010.0
20260831061521 7 202 11.3 0.0 0.00 0.00 0.00 56 1010.1
20260831061032 7 200 11.3 0.0 0.00 0.00 0.00 56 1010.2
20260831060537 8 209 11.3 0.0 0.00 0.00 0.00 55 1010.0
20260831060046 8 192 11.3 0.0 0.00 0.00 0.00 54 1010.0
20260831055557 8 200 11.3 0.0 0.00 0.00 0.00 52 1010.0
20260831055009 8 201 9.7 0.0 0.00 0.00 0.00 52 1010.0
20260831054523 8 187 8.0 0.0 0.00 0.00 0.00 54 1009.8
20260831054033 8 180 8.0 0.0 0.00 0.00 0.00 53 1009.7
20260831053545 8 194 9.7 0.0 0.00 0.00 0.00 53 1009.8
20260831053038 8 190 9.7 0.0 0.00 0.00 0.00 54 1009.7
20260831052549 7 209 8.0 0.0 0.00 0.00 0.00 57 1009.7
20260831052101 7 202 6.4 0.0 0.00 0.00 0.00 58 1009.6
20260831051512 8 192 8.0 0.0 0.00 0.00 0.00 56 1009.6
20260831051033 8 201 8.0 0.0 0.00 0.00 0.00 54 1009.5
20260831050543 8 198 8.0 0.0 0.00 0.00 0.00 53 1009.5
20260831050049 8 190 8.0 0.0 0.00 0.00 0.00 56 1009.4
20260831045558 8 185 9.7 0.0 0.00 0.00 0.00 56 1009.5
20260831045012 8 200 9.7 0.0 0.00 0.00 0.00 56 1009.4
20260831044526 8 198 9.7 0.0 0.00 0.00 0.00 57 1009.4
20260831044034 8 193 9.7 0.0 0.00 0.00 0.00 56 1009.3
20260831043604 8 196 8.0 0.0 0.00 0.00 0.00 56 1009.4
20260831043020 9 190 8.0 0.0 0.00 0.00 0.00 53 1009.4
20260831042538 9 195 9.7 0.0 0.00 0.00 0.00 53 1009.3
20260831042054 9 202 8.0 0.0 0.00 0.00 0.00 52 1009.3
20260831041505 10 201 8.0 0.0 0.00 0.00 0.00 51 1009.2
20260831041025 10 222 9.7 0.0 0.00 0.00 0.00 50 1009.2
20260831040538 10 221 11.3 0.0 0.00 0.00 0.00 50 1009.3
20260831040052 10 219 11.3 0.0 0.00 0.00 0.00 49 1009.3
20260831035520 10 235 9.7 0.0 0.00 0.00 0.00 51 1009.4
20260831035034 9 235 6.4 0.0 0.00 0.00 0.00 52 1009.4
20260831034544 10 189 6.4 0.0 0.00 0.00 0.00 50 1009.2
20260831034052 10 194 6.4 0.0 0.00 0.00 0.00 48 1009.3
20260831033601 11 228 6.4 0.0 0.00 0.00 0.00 47 1009.2
20260831033015 11 228 8.0 0.0 0.00 0.00 0.00 46 1009.0
20260831032534 11 217 8.0 0.0 0.00 0.00 0.00 44 1009.0
20260831032047 11 236 6.4 0.0 0.00 0.00 0.00 43 1008.9
20260831031511 12 211 8.0 0.0 0.00 0.00 0.00 40 1008.9
20260831031024 12 211 4.8 0.0 0.00 0.00 0.00 36 1008.7
20260831030543 13 236 3.2 0.0 0.00 0.00 0.00 34 1008.7
20260831030055 13 218 3.2 0.0 0.00 0.00 0.00 33 1008.7
20260831025559 12 218 4.8 0.0 0.00 0.00 0.00 35 1008.5
20260831025103 12 218 4.8 0.0 0.00 0.00 0.00 38 1008.3
20260831024511 12 82 3.2 0.0 0.00 0.00 0.00 40 1008.2
20260831024036 13 80 3.2 0.0 0.00 0.00 0.00 39 1007.9
20260831023545 14 83 4.8 0.0 0.00 0.00 0.00 36 1007.9
20260831023057 15 82 4.8 0.0 0.00 0.00 0.00 34 1007.8
20260831022505 15 88 4.8 0.0 0.00 0.00 0.00 30 1007.5
20260831022024 16 157 3.2 0.0 0.00 0.00 0.00 30 1007.6
20260831021544 16 342 4.8 0.0 0.00 0.00 0.00 29 1007.4
20260831021058 16 280 4.8 0.0 0.00 0.00 0.00 28 1007.2
20260831020505 17 295 3.2 0.0 0.00 0.00 0.00 28 1007.2
20260831020018 17 295 4.8 0.0 0.00 0.00 0.00 27 1007.1
20260831015537 17 295 6.4 0.0 0.00 0.00 0.00 27 1007.1
20260831015047 18 289 6.4 0.0 0.00 0.00 0.00 25 1007.2
20260831014559 18 279 6.4 0.0 0.00 0.00 0.00 24 1007.1
20260831014102 18 285 4.8 0.0 0.00 0.00 0.00 25 1007.1
20260831013521 18 307 6.4 0.0 0.00 0.00 0.00 25 1007.1
20260831013032 18 307 6.4 0.0 0.00 0.00 0.00 24 1007.1
20260831012546 18 305 8.0 0.0 0.00 0.00 0.00 24 1007.1
20260831012052 18 306 6.4 0.0 0.00 0.00 0.00 23 1007.2
20260831011605 18 299 6.4 0.0 0.00 0.00 0.00 22 1007.2
20260831011014 19 300 11.3 0.0 0.00 0.00 0.00 22 1007.2
20260831010540 19 298 14.5 0.0 0.00 0.00 0.00 21 1007.2
20260831010058 20 315 16.1 0.0 0.00 0.00 0.00 20 1007.2
20260831005517 20 298 19.3 0.0 0.00 0.00 0.00 19 1007.2
20260831005037 20 300 20.9 0.0 0.00 0.00 0.00 18 1007.2
20260831004547 20 284 20.9 0.0 0.00 0.00 0.00 18 1007.1
20260831004059 20 292 19.3 0.0 0.00 0.00 0.00 18 1007.0
20260831003525 21 298 16.1 0.0 0.00 0.00 0.00 18 1006.9
20260831003043 21 290 16.1 0.0 0.00 0.00 0.00 18 1006.9
20260831002558 21 309 16.1 0.0 0.00 0.00 0.00 18 1006.9
20260831002016 21 311 16.1 0.0 0.00 0.00 0.00 18 1006.9
20260831001531 21 296 12.9 0.0 0.00 0.00 0.00 17 1006.9
20260831001044 21 290 14.5 0.0 0.00 0.00 0.00 18 1006.9
20260831000552 21 267 17.7 0.0 0.00 0.00 0.00 16 1006.9
20260830235525 21 289 14.5 0.0 0.00 0.00 0.00 17 1007.0
20260830235040 21 280 16.1 0.0 0.00 0.00 0.00 16 1007.0
20260830234559 21 279 16.1 0.0 0.00 0.00 0.00 15 1006.9
20260830234015 21 265 14.5 0.0 0.00 0.00 0.00 16 1007.0
20260830233536 21 277 14.5 0.0 0.00 0.00 0.00 17 1007.1
20260830233054 21 296 14.5 0.0 0.00 0.00 0.00 17 1006.9
20260830232516 21 270 14.5 0.0 0.00 0.00 0.00 15 1006.9
20260830232026 21 265 16.1 0.0 0.00 0.00 0.00 16 1007.0
20260830231541 21 296 17.7 0.0 0.00 0.00 0.00 16 1006.9